Naples, Italy

11:42 PM CEST on May 22, 2017 (GMT +0200)
Capodichino Mil

Weather History for LIRN - November, 2011

Change the Weather History Date:

Monday, November 7, 2011

  Actual Average Record
Temperature  
Mean Temperature 60 °F -  
Max Temperature 68 °F 61 °F 84 °F (1997)
Min Temperature 51 °F 45 °F 41 °F (2002)
Degree Days  
Heating Degree Days 6    
Growing Degree Days 10 (Base 50)    
Moisture  
Dew Point 52 °F    
Average Humidity 76    
Maximum Humidity 88    
Minimum Humidity 53    
Precipitation  
Precipitation 0.00 in 0.20 in - ()
Sea Level Pressure  
Sea Level Pressure 30.09 in    
Wind  
Wind Speed 4 mph ()    
Max Wind Speed 10 mph    
Max Gust Speed 25 mph    
Visibility 6.6 miles    
Events Rain , Thunderstorm    
Averages and records for this station are not official NWS values.
T = Trace of Precipitation, MM = Missing Value Source: Averaged Metar Reports

Daily Weather History Graph

Daily Weather History Graph

Search for Another Location

Airport or City:

Trip Planner

Search our weather history database for the weather conditions in past years. The results will help you decide how hot, cold, wet, or windy it might be!

Date:

Astronomy

Nov. 07, 2011 Rise Set
Actual Time 6:39 AM CET 4:52 PM CET
Civil Twilight 6:10 AM CET 5:21 PM CET
Nautical Twilight 5:38 AM CET 5:54 PM CET
Astronomical Twilight 5:06 AM CET 6:26 PM CET
Moon 2:56 PM CET (11/7) 3:25 AM CET (11/7)
Length of Visible Light 11h 10m
Length of Day
10h 12m
Waxing Gibbous, 90% of the Moon is Illuminated
Nov 7
Waxing Gibbous
Nov 10
Full
Nov 18
Last Quarter
Nov 25
New
Dec 2
First Quarter

Hourly Weather History & Observations

Time (CET) Temp. Dew Point Humidity Pressure Visibility Wind Dir Wind Speed Gust Speed Precip Events Conditions
12:20 AM 57.2 °F 51.8 °F 82% 30.04 in 6.2 mi SSE 10.4 mph - N/A Rain , Thunderstorm Thunderstorms and Rain
12:50 AM 57.2 °F 50.0 °F 77% 30.01 in 5.0 mi South 5.8 mph - N/A Rain , Thunderstorm Thunderstorms and Rain
1:00 AM 57 °F 51 °F 72% 30.04 in 5 mi SSW 3.5 mph - - Rain , Thunderstorm Thunderstorms and Rain
1:20 AM 55.4 °F 50.0 °F 82% 30.04 in 6.2 mi NNE 4.6 mph - N/A Rain Light Rain
1:50 AM 55.4 °F 50.0 °F 82% 30.01 in 6.2 mi ENE 5.8 mph - N/A   Scattered Clouds
2:20 AM 53.6 °F 50.0 °F 88% 30.01 in 6.2 mi NE 3.5 mph - N/A   Scattered Clouds
2:50 AM 53.6 °F 50.0 °F 88% 30.01 in 6.2 mi North 3.5 mph - N/A   Scattered Clouds
3:20 AM 55.4 °F 50.0 °F 82% 30.01 in 6.2 mi NNW 3.5 mph - N/A   Scattered Clouds
3:50 AM 55.4 °F 50.0 °F 82% 30.01 in 6.2 mi Variable 2.3 mph - N/A   Scattered Clouds
4:00 AM 55 °F 50 °F 78% 30.03 in 5 mi NW 2.3 mph - - Rain , Thunderstorm Thunderstorms and Rain
4:20 AM 55.4 °F 50.0 °F 82% 30.04 in 6.2 mi NW 3.5 mph - N/A Rain Light Rain
4:50 AM 55.4 °F 50.0 °F 82% 30.04 in 6.2 mi North 3.5 mph - N/A   Mostly Cloudy
5:20 AM 55.4 °F 50.0 °F 82% 30.04 in 6.2 mi North 3.5 mph - N/A   Mostly Cloudy
5:50 AM 55.4 °F 50.0 °F 82% 30.04 in 6.2 mi NW 3.5 mph - N/A   Mostly Cloudy
6:20 AM 53.6 °F 50.0 °F 88% 30.04 in 6.2 mi NW 2.3 mph - N/A   Scattered Clouds
6:50 AM 53.6 °F 50.0 °F 88% 30.06 in 6.2 mi Variable 2.3 mph - N/A   Partly Cloudy
7:00 AM 54 °F 50 °F 81% 30.07 in 5 mi WNW 3.5 mph - -   Partly Cloudy
7:20 AM 55.4 °F 50.0 °F 82% 30.06 in 6.2 mi NNW 3.5 mph - N/A   Partly Cloudy
7:50 AM 57.2 °F 51.8 °F 82% 30.06 in - Variable 2.3 mph - N/A   Clear
8:20 AM 59.0 °F 51.8 °F 77% 30.06 in 6.2 mi Variable 2.3 mph - N/A   Partly Cloudy
8:50 AM 59.0 °F 51.8 °F 77% 30.09 in 6.2 mi NNW 3.5 mph - N/A   Partly Cloudy
9:20 AM 62.6 °F 51.8 °F 68% 30.09 in 6.2 mi Variable 2.3 mph - N/A   Scattered Clouds
9:50 AM 64.4 °F 53.6 °F 68% 30.09 in 6.2 mi Variable 1.2 mph - N/A   Scattered Clouds
10:00 AM 64 °F 54 °F 62% 30.12 in 17 mi South 3.5 mph - -   Partly Cloudy
10:20 AM 64.4 °F 55.4 °F 73% 30.09 in 6.2 mi South 3.5 mph - N/A   Scattered Clouds
10:50 AM 64.4 °F 53.6 °F 68% 30.12 in 6.2 mi South 5.8 mph - N/A   Scattered Clouds
11:20 AM 66.2 °F 55.4 °F 68% 30.12 in 6.2 mi SSE 9.2 mph - N/A   Scattered Clouds
11:50 AM 68.0 °F 55.4 °F 64% 30.09 in 6.2 mi South 10.4 mph - N/A   Scattered Clouds
12:20 PM 66.2 °F 53.6 °F 64% 30.09 in 6.2 mi South 9.2 mph - N/A   Scattered Clouds
12:50 PM 62.6 °F 53.6 °F 72% 30.09 in 6.2 mi SSE 6.9 mph - N/A Rain Rain Showers
1:00 PM 64 °F 55 °F 65% 30.12 in 6 mi SSE 4.6 mph - -   Mostly Cloudy
1:20 PM 64.4 °F 53.6 °F 68% 30.12 in 6.2 mi South 10.4 mph 25.3 mph N/A   Scattered Clouds
1:50 PM 62.6 °F 53.6 °F 72% 30.12 in 6.2 mi South 5.8 mph - N/A Rain , Thunderstorm Thunderstorms and Rain
2:20 PM 66.2 °F 57.2 °F 73% 30.09 in 6.2 mi SSE 4.6 mph - N/A   Mostly Cloudy
2:50 PM 66.2 °F 55.4 °F 68% 30.12 in 6.2 mi South 6.9 mph - N/A   Mostly Cloudy
3:20 PM 66.2 °F 55.4 °F 68% 30.12 in 6.2 mi South 5.8 mph - N/A   Scattered Clouds
4:00 PM 66 °F 53 °F 53% 30.12 in 12 mi South 9.2 mph - -   Scattered Clouds
4:20 PM 66.2 °F 53.6 °F 64% 30.12 in 6.2 mi South 5.8 mph - N/A   Partly Cloudy
4:50 PM 64.4 °F 53.6 °F 68% 30.12 in 6.2 mi Variable 2.3 mph - N/A   Partly Cloudy
5:20 PM 62.6 °F 53.6 °F 72% 30.12 in 6.2 mi East 3.5 mph - N/A   Partly Cloudy
5:50 PM 60.8 °F 51.8 °F 72% 30.12 in 6.2 mi East 3.5 mph - N/A   Partly Cloudy
6:20 PM 60.8 °F 51.8 °F 72% 30.15 in 6.2 mi ENE 3.5 mph - N/A   Partly Cloudy
6:50 PM 60.8 °F 51.8 °F 72% 30.15 in - Variable 2.3 mph - N/A   Clear
7:00 PM 60 °F 50 °F 61% 30.16 in 12 mi ENE 2.3 mph - -  
7:20 PM 59.0 °F 50.0 °F 72% 30.15 in - Variable 1.2 mph - N/A   Clear
7:50 PM 57.2 °F 50.0 °F 77% 30.15 in - Variable 2.3 mph - N/A   Clear
8:20 PM 55.4 °F 50.0 °F 82% 30.15 in - Variable 2.3 mph - N/A   Clear
8:50 PM 57.2 °F 51.8 °F 82% 30.15 in - Variable 1.2 mph - N/A   Clear
9:20 PM 57.2 °F 51.8 °F 82% 30.15 in - NE 4.6 mph - N/A   Clear
9:50 PM 55.4 °F 50.0 °F 82% 30.15 in - NE 3.5 mph - N/A   Clear
10:00 PM 55 °F 50 °F 77% 30.18 in 6 mi NNE 2.3 mph - -  
10:20 PM 55.4 °F 48.2 °F 77% 30.15 in - Variable 1.2 mph - N/A   Clear
10:50 PM 51.8 °F 48.2 °F 88% 30.15 in - Variable 1.2 mph - N/A   Clear
11:20 PM 51.8 °F 48.2 °F 88% 30.15 in - NW 3.5 mph - N/A   Clear
11:50 PM 53.6 °F 50.0 °F 88% 30.18 in - Variable 2.3 mph - N/A   Clear